Location: Chuathbaluk
(61.5726°N, 159.2454°W)
Time: 14:10:54
(UTC+00:00)

NUDT-PHONESAT - Pass Details

Date: 26 January 2021
Orbit: 480 x 498 km, 97.4° (Epoch: 01 March)

Event Time Altitude Azimuth Distance (km) Brightness Sun altitude
Rises 03:14:04 0° 139° (SE) 2,582 ? -5.7°
Reaches altitude 10° 03:16:12 10° 132° (SE) 1,705 ? -5.9°
Maximum altitude 03:19:38 39° 63° (ENE) 766 ? -6.3°
Drops below altitude 10° 03:23:07 10° 354° (N) 1,722 ? -6.6°
Sets 03:25:17 0° 346° (NNW) 2,612 ? -6.9°
